Zurück zum Katalog

STARLINK-35851

AktivKommunikationVLEO
NORAD 66356·PAYLOAD·🇺🇸 United States

Gestartet Nov 6, 2025 von Vandenberg Space Force Base

Loading…

Nächste Überflüge (nächste 24 Stunden)

TLE

AktuellSource: CelesTrak SupGP

Epoche: Sep 14, 2026, 23:14 UTC

1 66356C 25254J   26257.96854167  .00039832  00000+0  11770-2 0  2571
2 66356  53.1574  71.2716 0001053  78.1534 271.5799 15.34366944    10

Verfolge STARLINK-35851 in Echtzeit mit AllMySat

Download on the App Store